This is the latest recevied weather packets stored in our database for station/object DM4RS-1. If no packets are shown the sender has not sent any weather packets the latest 10 day(s).
| Time | Temp. | Humidity | Pressure | Rain* | Wind** | Luminosity | Snow |
|---|---|---|---|---|---|---|---|
| 1777575993 | 15.56° C | 45% | 1030.3 hPa | - | - | - | - |
| 1777575393 | 16.11° C | 44% | 1031.1 hPa | - | - | - | - |
| 1777574793 | 16.67° C | 42% | 1030.4 hPa | - | - | - | - |
| 1777574193 | 17.22° C | 41% | 1031 hPa | - | - | - | - |
| 1777573592 | 17.22° C | 41% | 1030.8 hPa | - | - | - | - |
| 1777572992 | 17.78° C | 40% | 1030.9 hPa | - | - | - | - |
| 1777572392 | 18.33° C | 39% | 1030.8 hPa | - | - | - | - |
| 1777571191 | 19.44° C | 36% | 1030.3 hPa | - | - | - | - |
| 1777570591 | 20° C | 36% | 1030.6 hPa | - | - | - | - |
| 1777569991 | 20° C | 35% | 1031.5 hPa | - | - | - | - |
| 1777569391 | 20.56° C | 35% | 1031 hPa | - | - | - | - |
| 1777568791 | 20.56° C | 34% | 1031.8 hPa | - | - | - | - |
| 1777568190 | 20.56° C | 34% | 1031.2 hPa | - | - | - | - |
| 1777567590 | 20.56° C | 34% | 1030.6 hPa | - | - | - | - |
| 1777566990 | 20.56° C | 34% | 1030.3 hPa | - | - | - | - |
| 1777566390 | 20.56° C | 34% | 1030.3 hPa | - | - | - | - |
| 1777565790 | 20.56° C | 34% | 1030.6 hPa | - | - | - | - |
| 1777565190 | 20.56° C | 34% | 1030.3 hPa | - | - | - | - |
| 1777564590 | 20° C | 34% | 1029.9 hPa | - | - | - | - |
| 1777563990 | 20.56° C | 33% | 1029.9 hPa | - | - | - | - |
| 1777563389 | 20.56° C | 34% | 1030.3 hPa | - | - | - | - |
| 1777562789 | 20.56° C | 34% | 1030.6 hPa | - | - | - | - |
| 1777562189 | 20.56° C | 33% | 1030.3 hPa | - | - | - | - |
| 1777561589 | 20.56° C | 34% | 1030.8 hPa | - | - | - | - |
| 1777560988 | 20.56° C | 33% | 1031.2 hPa | - | - | - | - |
* Rain since midnight (hover to see other rain measurements)
** Current wind speed in m/s (hover to see current wind gust speed)